Flag for Iceland Weather past 2 weeks in Reykjavik, Iceland

Now
34 °F

Snow flurries. Broken clouds.


Feels Like: 22 °F
Forecast: 36 / 41 °F
Wind: 20 mph from Southwest

Location: Reykjavik Airport

Current Time: Apr 21, 2015 at 6:41:43 AM

Latest Report: Apr 21, 2015 at 6:03 AM


Visibility: N/A

Pressure: 30.12 "Hg

Humidity: 87%

Dew point: 30 °F

Location of ReykjavikLocation

Historic Weather in Reykjavik — Graph

°F

Reykjavik temperature yesterday

Maximum temperature yesterday: 48 °F (at 12:00 PM)
Minimum temperature yesterday: 36 °F (at 11:00 PM)
Average temperature yesterday: 44 °F

Past Weeks' High & Low Weather Summary

 TemperatureHumidityPressure
High48 °F (Apr 19, 1:00 PM)100% (Apr 9, 5:00 PM)30.30 "Hg (Apr 9, 5:00 PM)
Low21 °F (Apr 12, 7:00 AM)44% (Apr 10, 5:00 PM)28.85 "Hg (Apr 11, 4:00 AM)
Average38 °F78%29.66 "Hg
* Reported Apr 6 5:00 AM — Apr 21 5:00 AM, Reykjavik, Weather by CustomWeather, © 2015

Note: Actual official high and low records may vary slightly from our data, if they occured in-between our weather recording intervals... More about our weather records

Advertising

Reykjavik weather history for previous 24 hours

 ConditionsComfort  
Time TempWeatherWind HumidityBarometerVisibility
5:00 AM
Tue, Apr 21
36 °FScattered showers. Partly cloudy.16 mph81%30.09 "HgN/A
4:00 AM36 °FPassing clouds.12 mph81%30.09 "HgN/A
3:00 AM36 °FPassing clouds.10 mph81%30.09 "HgN/A
2:00 AM36 °FPassing clouds.13 mph75%30.09 "HgN/A
1:00 AM36 °FPassing clouds.10 mph81%30.09 "HgN/A
12:00 AM36 °FSprinkles. Partly cloudy.12 mph81%30.09 "HgN/A
11:00 PM
Mon, Apr 20
36 °FLight rain. Partly cloudy.20 mph81%30.07 "HgN/A
10:00 PM37 °FPassing clouds.15 mph75%30.07 "HgN/A
9:00 PM37 °FScattered showers. Partly sunny.15 mph75%30.04 "HgN/A
8:00 PM39 °FPartly sunny.15 mph75%30.04 "HgN/A
7:00 PM41 °FPartly sunny.12 mph76%30.04 "HgN/A
6:00 PM39 °FSprinkles. Broken clouds.16 mph81%30.01 "HgN/A
5:00 PM43 °FSprinkles. Partly sunny.13 mph76%30.01 "HgN/A
4:00 PM43 °FPartly sunny.18 mph76%29.98 "HgN/A
3:00 PM45 °FDrizzle. Broken clouds.22 mph76%29.98 "HgN/A
2:00 PM45 °FScattered showers. More clouds than sun.21 mph81%29.95 "HgN/A
1:00 PM46 °FDrizzle. Mostly cloudy.23 mph87%29.92 "HgN/A
12:00 PM48 °FDrizzle. Mostly cloudy.29 mph82%29.92 "Hg6 mi
11:00 AM46 °FDrizzle. Broken clouds.36 mph87%29.92 "Hg6 mi
10:00 AM46 °FDrizzle. Broken clouds.32 mph87%29.92 "Hg6 mi
9:00 AM46 °FDrizzle. Mostly cloudy.30 mph87%29.95 "Hg5 mi
8:00 AM45 °FLight rain. Low clouds.29 mph93%29.98 "Hg4 mi
7:00 AM46 °FMostly cloudy.25 mph82%29.98 "HgN/A
6:00 AM46 °FLight rain. Mostly cloudy.25 mph82%30.01 "Hg6 mi
Weather by CustomWeather, © 2015

See weather overviewHow to use our weather pages